Location: Newark
(9.4667°S, 159.8167°E)
Time: 20:37:32
(UTC+00:00)

Vanguard 1 - Pass Details

Date: 20 November 2019
Orbit: 652 x 3832 km, 34.3° (Epoch: 10 December)

Event Time Altitude Azimuth Distance (km) Brightness Sun altitude
Rises 15:57:51 0° 232° (SW) 7,065 14.3 -38.7°
Reaches altitude 10° 16:02:34 10° 226° (SW) 6,360 14.0 -37.7°
Maximum altitude 16:24:06 49° 155° (SSE) 4,480 13.5 -33.2°
Drops below altitude 10° 16:44:25 10° 84° (E) 6,111 14.7 -28.9°
Sets 16:48:44 0° 79° (ENE) 6,794 15.1 -28.0°
